Theta_e
299 297 293 297 297 302 299 296 296 299 299 295 295 294 296 299 298 299 300 303 305 311 314 317 321 322 323 324 327 328 328 327 328 327 326 325 326 326 326 326 327 328 328 328
294 292 300 303 299 297 296 295 295 301 296 294 293 294 297 297 298 300 301 301 304 306 311 316 317 320 321 324 325 328 329 330 329 329 329 328 325 326 326 328 328 328 329 330
293 296 301 300 300 296 295 293 296 296 292 292 289 290 294 298 298 299 301 303 304 304 307 311 315 318 320 321 324 326 329 331 331 331 330 327 327 326 325 326 329 329 329 329
295 297 294 298 297 299 294 300 296 294 290 287 291 285 292 296 296 298 299 300 300 301 306 310 314 318 320 322 324 326 328 328 331 331 328 326 326 323 326 327 327 327 329 329
292 293 292 291 296 299 297 301 297 293 290 290 286 283 291 296 294 296 299 299 299 301 302 304 313 317 319 320 323 325 326 326 327 330 330 328 325 326 326 326 326 328 328 328
291 294 294 293 293 297 298 297 293 291 290 284 290 286 287 293 295 297 299 300 301 300 301 302 306 314 316 319 320 322 322 323 324 327 329 329 327 326 325 324 325 325 326 330
286 288 293 295 289 291 293 288 282 281 281 281 289 285 289 294 295 297 298 300 300 301 301 300 300 302 306 310 316 319 321 321 323 324 325 328 327 326 324 324 324 327 326 326
284 281 288 293 291 288 288 290 285 279 280 279 280 282 287 298 298 296 297 295 295 300 298 299 299 299 299 302 302 304 307 313 318 321 322 323 325 324 324 325 326 326 325 326
286 285 291 293 295 294 288 285 294 283 277 278 281 285 291 293 292 292 293 292 293 295 297 297 298 299 299 300 301 302 304 305 307 313 316 316 316 316 318 322 321 324 325 326
293 283 290 292 295 294 291 294 285 284 276 274 279 280 285 290 290 290 291 291 292 296 297 298 299 300 301 303 304 304 306 309 311 313 314 313 313 313 316 315 315 315 319 323
295 289 285 288 286 287 287 287 289 287 284 279 275 279 289 290 291 290 290 292 292 295 296 298 300 302 303 304 305 305 307 307 308 310 310 311 310 310 310 310 310 309 309 311
295 288 281 283 290 293 292 288 289 284 280 280 280 281 286 289 290 290 291 293 293 296 297 298 299 300 302 303 304 304 305 305 306 307 307 308 308 308 307 305 306 308 304 303
294 287 279 281 285 288 286 289 290 290 284 280 278 282 288 289 289 290 290 290 295 296 297 298 298 298 299 301 302 303 304 304 305 305 305 305 305 308 305 303 302 301 301 298
296 289 286 280 283 286 283 287 289 289 281 281 282 283 285 286 287 289 289 290 294 295 297 297 297 297 298 300 300 301 301 302 303 303 303 302 302 302 302 301 299 298 298 296
293 285 286 284 289 289 287 287 288 287 288 283 285 285 288 287 289 289 289 290 294 295 295 296 296 297 297 298 298 299 299 300 301 301 300 298 298 298 297 298 296 295 293 293
293 285 283 281 284 288 285 288 288 288 289 289 286 287 293 290 291 289 290 291 292 294 296 296 297 297 297 297 297 298 297 297 298 298 297 295 294 291 290 289 287 287 286 287
289 286 282 280 283 284 281 286 287 288 290 289 285 290 290 289 290 291 291 291 292 294 296 296 297 297 297 296 297 295 295 295 295 293 290 289 288 287 287 287 286 286 285 285
287 286 284 277 282 276 286 291 291 289 290 291 291 292 292 291 292 293 293 292 292 294 295 295 296 296 296 296 295 295 294 292 290 288 287 287 286 285 285 285 285 285 284 284
292 288 282 279 279 282 285 287 288 287 287 291 291 292 291 291 290 291 294 294 294 295 296 295 294 294 294 294 294 290 288 288 287 287 286 285 285 283 283 281 282 282 281 281
290 290 285 283 278 276 285 289 291 291 283 292 293 293 291 289 286 289 293 294 294 294 294 293 293 292 292 289 289 288 287 286 286 286 285 285 282 280 280 280 279 278 282 280
284 284 282 282 278 282 287 290 293 281 284 292 293 293 292 290 294 294 293 291 292 292 292 291 291 289 287 287 287 286 285 285 285 283 282 280 280 279 280 278 277 279 280 280
283 282 282 281 278 278 287 289 286 290 287 287 292 294 293 295 294 292 291 289 288 289 288 287 286 285 284 285 286 284 284 283 281 280 279 277 277 279 279 278 277 279 279 279
280 287 284 286 285 288 288 292 293 291 289 288 290 291 295 293 290 289 287 286 286 285 284 284 284 282 280 280 283 282 279 280 279 278 276 275 276 278 278 278 277 277 278 277
284 290 284 285 286 285 289 287 288 288 289 288 289 290 291 290 288 286 285 284 283 283 282 279 281 279 277 276 279 279 278 278 278 276 274 274 275 274 274 277 277 279 278 276
285 288 283 282 283 285 285 287 289 289 287 287 287 288 289 288 286 285 283 282 282 281 280 280 280 277 275 274 274 273 275 277 277 275 274 273 274 274 275 275 275 277 277 279
285 285 286 285 287 288 288 290 288 287 287 287 286 286 285 286 285 283 282 282 281 280 280 279 277 276 273 273 272 271 270 275 276 274 274 274 275 274 275 274 274 282 283 284
Wind_Speed
7 7 17 15 17 11 14 15 15 18 10 10 13 13 13 9 5 9 10 10 10 13 11 9 9 9 10 9 13 11 11 13 9 8 7 5 8 7 7 5 7 7 6 7
8 16 16 11 16 14 11 14 16 11 10 8 10 17 11 10 10 12 11 10 11 9 11 14 11 9 10 13 12 13 14 13 11 9 7 5 4 4 4 5 6 7 8 8
14 10 15 14 14 14 6 10 19 12 4 4 3 8 9 12 9 10 9 9 10 11 12 10 11 11 9 10 12 13 12 14 13 11 7 4 3 3 4 4 6 6 7 7
12 5 4 13 17 17 19 16 15 6 11 7 10 6 12 18 14 12 13 14 10 10 10 12 14 15 14 15 10 10 12 12 13 12 7 8 9 5 6 6 5 6 9 8
12 19 9 3 16 19 14 18 13 7 10 5 6 3 6 9 16 17 19 12 11 10 9 11 17 17 15 10 11 12 12 10 9 12 11 8 8 7 4 5 7 8 6 8
4 3 8 9 6 8 3 10 8 7 3 7 12 9 7 10 19 22 15 15 14 12 11 10 10 12 11 11 10 10 10 10 9 11 14 13 11 9 7 5 6 4 4 6
3 2 6 9 5 6 7 11 4 2 3 8 10 9 9 7 10 11 15 15 14 11 12 11 11 10 10 10 10 9 10 9 9 9 9 12 9 9 9 7 5 5 4 2
11 6 13 11 8 8 14 12 6 9 7 4 3 11 7 20 11 5 8 8 5 11 6 10 10 9 8 8 6 6 6 5 6 7 7 6 8 4 4 5 6 4 3 3
10 4 6 16 13 14 10 14 4 2 0 4 6 5 9 8 7 6 9 8 7 7 8 8 8 7 8 8 7 7 7 6 7 6 5 4 4 4 4 5 3 2 1 2
9 7 10 8 6 7 7 4 3 5 7 6 4 4 7 11 11 8 8 9 8 7 8 8 7 7 5 7 6 7 8 7 6 7 6 5 5 4 4 3 3 2 2 2
13 5 9 8 9 16 6 7 7 5 5 5 4 8 6 8 9 11 9 9 9 9 8 7 7 7 8 8 7 7 7 8 7 6 6 6 5 5 5 3 3 2 4 4
10 6 8 6 5 10 12 12 9 2 5 1 2 7 1 6 7 7 8 7 7 10 9 9 8 7 7 8 8 8 7 7 6 7 6 6 6 5 6 6 6 4 5 5
15 8 8 7 7 3 9 16 14 22 1 7 5 6 1 5 5 4 7 6 7 9 10 9 8 7 7 7 7 7 7 7 7 7 7 7 6 6 5 5 5 5 5 5
18 8 14 16 14 14 13 18 19 19 5 3 8 2 5 5 5 7 6 8 8 8 10 8 8 7 8 8 8 8 8 7 7 7 8 8 8 8 7 6 6 5 5 6
5 3 1 2 13 19 17 23 23 20 27 13 8 8 9 6 7 8 8 8 9 8 9 9 9 8 8 8 7 8 8 8 7 7 7 7 7 7 6 6 5 5 5 5
4 6 1 1 1 14 15 25 24 29 23 26 6 10 13 6 7 7 9 10 10 11 12 12 10 10 10 10 8 8 8 7 7 7 7 6 6 6 6 5 4 5 5 4
17 11 9 7 5 8 7 26 29 27 22 25 20 22 6 7 8 10 10 11 12 13 13 13 13 12 9 8 8 8 8 7 7 7 7 7 6 6 6 6 6 5 5 4
19 11 3 3 6 10 7 15 19 24 25 23 24 14 13 9 10 10 8 13 11 11 11 11 11 7 8 8 8 8 8 8 7 7 7 7 7 7 7 7 6 5 4 5
17 8 5 7 6 3 5 11 27 20 24 15 26 16 6 6 6 7 9 10 14 17 14 8 7 8 8 9 8 9 8 8 7 8 8 7 7 6 6 5 5 3 3 4
3 6 4 5 6 8 13 12 10 5 17 20 24 22 15 9 10 8 11 12 13 9 9 10 9 7 9 7 9 9 8 7 7 7 7 6 6 7 7 6 5 3 3 3
8 8 9 6 3 9 8 17 21 12 17 15 23 18 17 15 17 10 9 5 8 7 11 10 10 9 9 8 8 8 7 7 6 6 7 5 4 6 6 6 4 5 5 5
14 10 7 4 4 17 7 20 25 16 1 2 12 19 21 23 12 7 7 8 11 13 11 9 10 8 6 7 8 8 8 7 8 8 7 6 5 4 4 7 3 5 6 5
6 13 13 16 10 5 10 15 13 2 7 5 8 10 21 14 8 9 7 8 7 8 7 7 12 10 5 4 7 10 5 9 9 8 7 5 5 5 4 5 5 4 4 3
4 7 5 5 7 6 13 1 3 2 1 3 4 6 9 10 10 8 8 8 8 7 7 4 11 10 7 5 6 8 7 8 10 9 6 5 7 5 4 3 2 3 3 3
7 10 7 3 2 5 3 5 6 5 3 3 4 5 8 13 8 9 8 7 8 7 6 8 10 9 8 7 7 5 6 8 10 8 6 5 4 4 4 2 4 3 2 4
6 9 13 9 12 8 11 17 6 8 7 6 6 5 5 7 9 10 9 8 9 10 9 11 10 11 7 8 8 5 4 6 9 7 5 4 4 3 3 3 0 4 6 7
Wind_Direction
119 212 215 216 208 199 205 195 214 211 189 183 210 227 236 206 214 212 221 200 190 189 193 184 179 176 168 181 178 185 178 186 180 189 186 185 178 186 193 201 210 180 199 196
134 222 221 243 218 206 192 196 225 221 164 163 213 239 227 214 205 205 210 218 195 190 183 187 182 176 174 185 186 183 193 184 189 192 187 191 175 182 191 189 196 199 191 197
190 177 217 224 226 223 205 231 211 219 132 319 344 273 227 229 193 200 219 219 207 189 192 173 174 184 181 186 190 191 196 190 192 191 180 160 166 173 187 200 208 204 194 194
205 154 102 234 224 202 215 219 254 207 154 211 159 270 205 213 211 192 206 217 216 192 178 173 175 183 191 198 186 186 196 198 190 184 174 185 203 197 204 192 201 198 193 196
184 178 142 237 218 199 231 209 254 207 190 126 206 244 223 193 209 211 206 203 211 213 186 178 180 182 192 181 188 189 193 195 186 182 187 183 194 199 200 187 196 200 196 196
88 32 127 149 16 238 19 174 18 340 286 238 199 192 230 203 193 217 211 205 202 196 197 196 181 179 183 179 180 186 186 194 189 184 185 194 197 191 198 205 205 191 180 198
91 84 119 128 120 344 143 122 117 156 253 232 186 207 228 187 199 194 200 205 198 197 186 186 168 163 164 170 173 171 179 193 188 184 186 193 195 190 200 198 194 183 177 176
165 190 173 171 165 159 201 181 160 172 194 210 340 223 237 231 241 206 180 124 86 202 147 159 158 147 146 151 160 163 177 186 181 180 183 181 192 198 201 206 231 229 176 192
177 166 160 172 142 150 191 235 159 110 148 79 210 280 313 237 230 194 165 137 144 130 122 116 112 134 148 152 172 177 175 190 192 175 155 153 113 115 137 108 90 83 140 179
187 118 161 160 126 251 244 272 201 239 151 223 229 246 225 214 203 186 174 179 166 137 130 134 139 136 129 141 151 163 172 178 156 143 142 140 140 141 111 125 144 164 279 296
174 137 135 158 172 181 186 217 214 268 150 191 142 251 212 225 171 173 184 196 185 161 149 139 128 121 124 122 133 136 127 124 124 127 128 144 140 129 118 119 111 95 77 55
183 106 165 187 131 211 247 201 201 234 196 149 217 268 76 93 100 128 139 146 167 143 138 133 137 144 148 153 142 139 133 131 134 125 123 125 117 113 103 89 67 60 78 56
179 159 122 130 42 319 215 217 212 245 74 194 141 270 72 122 136 130 140 143 134 131 131 140 147 164 168 154 149 138 134 135 135 126 125 121 121 122 120 110 105 98 108 106
176 188 188 186 189 143 189 203 219 218 219 143 218 272 220 188 172 161 184 172 163 152 148 152 158 179 170 164 154 149 140 140 144 142 139 143 143 149 139 137 136 127 126 121
96 126 233 96 165 182 185 188 202 213 221 206 189 226 264 203 179 183 184 172 166 167 166 174 175 179 167 161 160 144 138 144 155 148 138 137 123 115 122 124 123 115 117 119
116 190 151 311 234 196 181 193 191 213 216 237 196 220 232 142 128 157 177 175 181 181 183 184 176 172 174 174 166 149 142 149 151 147 138 129 118 117 119 116 112 100 97 95
181 157 173 217 160 101 180 190 200 208 209 209 210 215 182 179 175 184 193 185 187 188 187 188 184 181 174 167 152 151 144 137 142 132 126 125 126 123 121 121 117 126 128 116
175 170 142 159 126 199 229 200 208 209 219 211 232 185 190 184 202 203 187 180 185 187 192 196 183 155 151 147 144 143 137 141 132 123 126 132 137 141 142 145 147 138 130 128
180 158 126 147 191 292 245 220 195 189 232 210 229 218 191 171 154 245 172 170 188 196 198 178 150 142 139 145 139 124 126 133 141 153 158 161 150 152 144 129 125 96 105 83
84 143 145 149 150 199 229 160 138 100 270 210 216 213 185 139 198 211 191 190 198 158 154 146 133 122 124 130 127 131 145 149 164 164 156 143 139 133 134 130 112 69 84 79
157 167 182 171 203 262 223 159 134 141 243 219 204 196 174 195 215 207 183 159 147 143 140 127 125 135 142 139 135 139 143 167 154 112 104 111 123 131 130 122 117 127 116 114
170 159 179 159 202 250 156 145 169 191 269 317 163 180 183 200 185 162 145 138 137 136 132 130 124 116 117 128 128 142 145 137 114 111 113 116 117 117 124 121 110 120 122 124
164 196 174 190 194 231 190 169 201 186 149 203 168 177 189 173 153 149 140 133 124 123 118 114 124 115 92 100 135 128 141 123 115 111 119 117 109 107 116 128 138 120 119 121
285 191 174 94 215 183 193 331 359 89 146 133 139 139 146 148 140 130 124 126 119 122 122 101 115 110 99 68 85 113 125 117 114 114 117 119 120 117 93 87 116 122 133 149
193 163 171 235 23 59 262 220 188 180 89 86 58 113 134 130 148 140 133 124 119 118 115 117 118 114 105 90 84 87 109 118 116 117 129 132 122 128 128 142 154 150 171 164
197 169 191 223 164 165 193 212 162 142 161 169 116 86 52 111 133 118 115 116 124 120 115 108 105 110 108 99 92 78 84 118 126 121 133 148 126 138 146 134 172 217 213 218